Location: Newark
(44.3248°N, 23.7839°E)
Time: 00:05:42
(UTC+00:00)

NOAA 19 - Pass Details

Date: 01 May 2024
Orbit: 839 x 859 km, 99.0° (Epoch: 28 May)

Event Time Altitude Azimuth Distance (km) Brightness Sun altitude
Exits shadow 20:31:35 - 228° (SW) 2,746 7.7 -25.2°
Reaches altitude 10° 20:32:53 10° 239° (WSW) 2,455 7.6 -25.3°
Maximum altitude 20:35:43 14° 271° (W) 2,167 7.6 -25.5°
Drops below altitude 10° 20:38:34 10° 303° (WNW) 2,462 8.4 -25.8°
Sets 20:42:10 0° 327° (NNW) 3,402 9.7 -26.1°
